TimeCDT,TemperatureF,Dew PointF,Humidity,Sea Level PressureIn,VisibilityMPH,Wind Direction,Wind SpeedMPH,Gust SpeedMPH,PrecipitationIn,Events,Conditions,WindDirDegrees,DateUTC
12:42 AM,75.2,71.6,89,29.81,7.0,Calm,Calm,-,N/A,,Scattered Clouds,0,2011-10-01 05:42:00
1:40 AM,75.2,69.8,83,29.84,7.0,NE,3.5,-,N/A,,Scattered Clouds,40,2011-10-01 06:40:00
2:42 AM,71.6,69.8,94,29.84,7.0,Calm,Calm,-,N/A,,Scattered Clouds,0,2011-10-01 07:42:00
3:45 AM,69.8,69.8,100,29.86,7.0,Calm,Calm,-,N/A,,Partly Cloudy,0,2011-10-01 08:45:00
4:40 AM,69.8,68.0,94,29.84,7.0,Calm,Calm,-,N/A,,Scattered Clouds,0,2011-10-01 09:40:00
5:42 AM,68.0,68.0,100,29.86,7.0,Calm,Calm,-,N/A,,Scattered Clouds,0,2011-10-01 10:42:00
6:47 AM,68.0,68.0,100,29.83,7.0,Calm,Calm,-,N/A,,Scattered Clouds,0,2011-10-01 11:47:00
7:44 AM,75.2,73.4,94,29.89,8.0,Calm,Calm,-,N/A,,Mostly Cloudy,0,2011-10-01 12:44:00
8:41 AM,80.6,73.4,79,29.91,8.0,North,5.8,-,N/A,,Scattered Clouds,360,2011-10-01 13:41:00
9:41 AM,80.6,75.2,84,29.95,8.0,North,6.9,-,N/A,,Scattered Clouds,360,2011-10-01 14:41:00
10:43 AM,84.2,71.6,66,29.93,8.0,NNE,6.9,-,N/A,,Scattered Clouds,20,2011-10-01 15:43:00
11:46 AM,84.2,71.6,66,29.92,8.0,North,8.1,-,N/A,,Mostly Cloudy,10,2011-10-01 16:46:00
12:43 PM,84.2,73.4,70,29.88,8.0,NE,8.1,-,N/A,,Mostly Cloudy,40,2011-10-01 17:43:00
1:41 PM,86.0,73.4,66,29.89,8.0,ENE,8.1,-,N/A,,Scattered Clouds,60,2011-10-01 18:41:00
2:40 PM,82.4,71.6,70,29.88,7.0,East,5.8,-,N/A,,Mostly Cloudy,90,2011-10-01 19:40:00
3:48 PM,80.6,73.4,79,29.90,7.0,NNE,6.9,-,N/A,,Mostly Cloudy,30,2011-10-01 20:48:00
4:45 PM,82.4,75.2,79,29.86,8.0,North,11.5,-,N/A,,Scattered Clouds,360,2011-10-01 21:45:00
5:44 PM,78.8,73.4,83,29.86,8.0,North,8.1,-,N/A,,Mostly Cloudy,360,2011-10-01 22:44:00
6:46 PM,77.0,73.4,89,29.84,7.0,North,5.8,-,N/A,,Mostly Cloudy,10,2011-10-01 23:46:00
7:40 PM,77.0,73.4,89,29.87,8.0,North,6.9,-,N/A,,Scattered Clouds,10,2011-10-02 00:40:00
8:40 PM,77.0,71.6,83,29.88,7.0,NE,5.8,-,N/A,,Scattered Clouds,50,2011-10-02 01:40:00
9:41 PM,77.0,71.6,83,29.92,7.0,Calm,Calm,-,N/A,,Scattered Clouds,0,2011-10-02 02:41:00
10:42 PM,75.2,71.6,89,29.92,7.0,Calm,Calm,-,N/A,,Partly Cloudy,0,2011-10-02 03:42:00
11:44 PM,75.2,71.6,89,29.91,7.0,Calm,Calm,-,N/A,,Partly Cloudy,0,2011-10-02 04:44:00